This is the latest recevied weather packets stored in our database for station/object KG7FOQ-13. If no packets are shown the sender has not sent any weather packets the latest 10 day(s).
| Time | Temp. | Humidity | Pressure | Rain* | Wind** | Luminosity | Snow |
|---|---|---|---|---|---|---|---|
| 1777609464 | 7.22° C | 53% | 1019 hPa | 0 mm | - | - | - |
| 1777609163 | 7.22° C | 52% | 1018.9 hPa | 0 mm | - | - | - |
| 1777608863 | 7.22° C | 48% | 1018.8 hPa | 0 mm | - | - | - |
| 1777608562 | 7.78° C | 51% | 1018.7 hPa | 0 mm | - | - | - |
| 1777608262 | 7.78° C | 54% | 1018.7 hPa | 0 mm | - | - | - |
| 1777607961 | 8.33° C | 55% | 1018.6 hPa | 0 mm | - | - | - |
| 1777607661 | 8.89° C | 50% | 1018.5 hPa | 0 mm | - | - | - |
| 1777607360 | 8.89° C | 48% | 1018.5 hPa | 0 mm | - | - | - |
| 1777607060 | 9.44° C | 54% | 1018.2 hPa | 0 mm | - | - | - |
| 1777606759 | 10.56° C | 51% | 1018.4 hPa | 0 mm | - | - | - |
| 1777606459 | 11.67° C | 46% | 1018.2 hPa | 0 mm | - | - | - |
| 1777606158 | 11.67° C | 40% | 1018.1 hPa | 0 mm | - | - | - |
| 1777605858 | 12.22° C | 39% | 1018.1 hPa | 0 mm | - | - | - |
| 1777605557 | 12.78° C | 42% | 1018 hPa | 0 mm | - | - | - |
| 1777605256 | 12.78° C | 37% | 1018 hPa | 0 mm | - | - | - |
| 1777604956 | 12.78° C | 40% | 1017.9 hPa | 0 mm | - | - | - |
| 1777604656 | 12.78° C | 42% | 1017.9 hPa | 0 mm | - | - | - |
| 1777604355 | 14.44° C | 44% | 1017.9 hPa | 0 mm | - | - | - |
| 1777604054 | 15° C | 37% | 1017.8 hPa | 0 mm | - | - | - |
| 1777603754 | 15° C | 31% | 1017.8 hPa | 0 mm | - | - | - |
| 1777603453 | 15.56° C | 31% | 1017.8 hPa | 0 mm | - | - | - |
| 1777603153 | 15.56° C | 29% | 1017.7 hPa | 0 mm | - | - | - |
| 1777602853 | 15.56° C | 29% | 1017.7 hPa | 0 mm | - | - | - |
| 1777602552 | 15.56° C | 29% | 1017.7 hPa | 0 mm | - | - | - |
| 1777602251 | 15.56° C | 31% | 1017.7 hPa | 0 mm | - | - | - |
* Rain latest hour (hover to see other rain measurements)
** Current wind speed in m/s (hover to see current wind gust speed)